Showing default

MAKERSAT 0, 43016

Orbit data source: Space-Track

MAKERSAT 0, 43016 is a payload satellite owned by NW Nazarene (US) in SSO that was launched on Sat, 18 Nov 2017 UTC via a DELTA 7920-10C launch vehicle from the Air Force Western Test Range (AFWTR). Payload-class satellites include a variety of spacecraft equipped with specific instruments for various scientific and technological missions. These include communications satellites like Starlink; space stations such as the ISS; scientific satellites like the Hubble; Earth observation satellites from companies like Planet Labs, Umbra, and HawkEye 360; GPS; miniature CubeSats for education and research; and military/defense satellites.

Loading next visibility...
Identifier
43016, 2017-073D
Orbit
SSO
Country
Flag of USUS
Related business
Manufacturer
NW Nazarene
Mission
Operational Amateur Technology
Bus & Motor
CUBESAT 1U, Unknown motor
Mass
1 kg wet, 1 kg dry
Launch date (UTC)
2017-11-18 (8 years ago)
Launch vehicle
DELTA 7920-10C
Launch site
Air Force Western Test Range (AFWTR)
Object type
Payload
Rocket body
Debris
Shape & HBR
Box, 0.1 m
Radar Cross Section
0.015 m², Small (<0.1 m²)

Expand to show TLE details & history
Last TLE update: 13 hours ago

TLE from 13 hours ago
0 MAKERSAT 0
1 43016U 17073D   25312.61424463  .00036774  00000-0  12912-2 0  9999
2 43016  97.4911 189.6186 0131481 332.3990  27.0305 15.21388751432808
Epoch: 2025-11-08T14:44Z
TLE epoch observation values (Epoch: 2025-11-08T14:44:30.736Z)
Latitude
-0.00004°
Longitude
-79.55079°
Altitude
424.399 km
Speed
7.701 km/s
True Right ascension
12h 38m 28s
True Declination
0° 00' 00"
Sunlit
Object was in daylight at epoch
Visualization orbit readout
Latitude
Unknown
Longitude
Unknown
Altitude
Unknown
Speed
Unknown
Apparent Right ascension
Unknown
Apparent Declination
Unknown
Sunlit
N/A
Visualization observer readout
Local Sidereal Time
23:43:39
Azimuth
Unknown
Elevation
Unknown
Doppler factor
Unknown
Orbital elements
Apogee altitude
589.034 km
Perigee altitude
408.201 km
Semi-major axis
6,876.755 km
Eccentricity
0.01315
Inclination
97.4911°
RAAN
189.6186°
Arg. of periapsis
332.399°
True anomaly
27.72537°
Mean anomaly
27.0305°
Eccentric anomaly
27.37691°
Mean motion
3.80599 °/min
Orbital period
94.59 mins
BSTAR
0.0012912
Loading maneuver chart data...
Computing Atmospheric mass density...
Loading historical data...
Loading historical data...
Loading historical data...
Loading historical data...
Loading historical data...
Loading historical data...
Loading historical data...
Other satellites on launch #73 in the year 2017 (2017-11-18 UTC)

Documentation

Showing up to 5 results
|